Location: Arrien
(42.8963°N, 1.0429°E)
Time: 14:28:59
(UTC+00:00)

Tiangong - Pass Details

Date: 20 February 2026
Orbit: 382 x 391 km, 41.5° (Epoch: 5 March)

Event Time Altitude Azimuth Distance (km) Brightness Sun altitude
Rises 18:28:26 0° 275° (W) 2,259 3.7 -10.7°
Reaches altitude 10° 18:30:37 10° 266° (W) 1,402 2.3 -11.1°
Maximum altitude 18:33:30 33° 200° (SSW) 670 -0.7 -11.6°
Enters shadow 18:36:11 11° 135° (SE) 1,323 0.2 -12.1°
